ONEWEB-0012, 44057

Orbit data source: Space-Track

ONEWEB-0012, 44057 is a payload satellite owned by One Web (UK) in LEO that was launched on Wed, 27 Feb 2019 UTC via a SOYUZ-ST-B launch vehicle from the French Guiana (FRGUI). Payload-class satellites include a variety of spacecraft equipped with specific instruments for various scientific and technological missions. These include communications satellites like Starlink; space stations such as the ISS; scientific satellites like the Hubble; Earth observation satellites from companies like Planet Labs, Umbra, and HawkEye 360; GPS; miniature CubeSats for education and research; and military/defense satellites.

Loading next visibility...
Identifier
44057, 2019-010A
Orbit
LEO
Country
Flag of UKUK
Related business
Manufacturer
Airbus/Toulouse
Mission
Operational Commercial Communications
Bus & Motor
ARROW, Unknown motor
Mass
148 kg wet, ~140 kg dry
Launch date (UTC)
2019-02-27 (7 years ago)
Launch vehicle
SOYUZ-ST-B
Launch site
French Guiana (FRGUI)
Object type
Payload
Rocket body
Debris
Shape & HBR
Trap Box + 2 Pan, 6.7 m
Radar Cross Section
3.464 m², Large (>1 m²)

Expand to show TLE details & history
Last TLE update: 15 hours ago

TLE from 15 hours ago
0 ONEWEB-0012
1 44057U 19010A   25312.86198022  .00000039  00000-0  69089-4 0  9998
2 44057  87.8991 272.6751 0001563  91.8254 268.3056 13.16596330322574
Epoch: 2025-11-08T20:41Z
TLE epoch observation values (Epoch: 2025-11-08T20:41:15.091Z)
Latitude
-0.00004°
Longitude
-85.92329°
Altitude
1,200.681 km
Speed
7.254 km/s
True Right ascension
18h 10m 42s
True Declination
0° 00' 00"
Sunlit
Object was in daylight at epoch
Visualization orbit readout
Latitude
Unknown
Longitude
Unknown
Altitude
Unknown
Speed
Unknown
Apparent Right ascension
Unknown
Apparent Declination
Unknown
Sunlit
N/A
Visualization observer readout
Local Sidereal Time
07:29:21
Azimuth
Unknown
Elevation
Unknown
Doppler factor
Unknown
Orbital elements
Apogee altitude
1,196.043 km
Perigee altitude
1,193.676 km
Semi-major axis
7,572.996 km
Eccentricity
0.00016
Inclination
87.8991°
RAAN
272.6751°
Arg. of periapsis
91.8254°
True anomaly
268.2877°
Mean anomaly
268.3056°
Eccentric anomaly
268.29665°
Mean motion
3.29338 °/min
Orbital period
109.31 mins
BSTAR
0.000069089
Loading maneuver chart data...
Computing Atmospheric mass density...
Loading historical data...
Loading historical data...
Loading historical data...
Loading historical data...
Loading historical data...
Loading historical data...
Loading historical data...
Other satellites on launch #10 in the year 2019 (2019-02-27 UTC)

Documentation

Showing up to 5 results
|